TimeCST,TemperatureF,Dew PointF,Humidity,Sea Level PressureIn,VisibilityMPH,Wind Direction,Wind SpeedMPH,Gust SpeedMPH,PrecipitationIn,Events,Conditions,WindDirDegrees,DateUTC
12:56 AM,-9999,-9999,N/A,30.18,-9999.0,North,-9999.0,-,N/A,,Unknown,0,2013-01-03 06:56:00
1:56 AM,-9999,-9999,N/A,30.18,-9999.0,North,-9999.0,-,N/A,,Unknown,0,2013-01-03 07:56:00
2:56 AM,-9999,-9999,N/A,30.18,-9999.0,North,-9999.0,-,N/A,,Unknown,0,2013-01-03 08:56:00
3:56 AM,-9999,-9999,N/A,30.18,-9999.0,North,-9999.0,-,N/A,,Unknown,0,2013-01-03 09:56:00
4:56 AM,-9999,-9999,N/A,30.20,-9999.0,North,-9999.0,-,N/A,,Unknown,0,2013-01-03 10:56:00
5:56 AM,-9999,-9999,N/A,30.20,-9999.0,North,-9999.0,-,N/A,,Unknown,0,2013-01-03 11:56:00
6:56 AM,-9999,-9999,N/A,30.23,-9999.0,North,-9999.0,-,N/A,,Unknown,0,2013-01-03 12:56:00
7:56 AM,-9999,-9999,N/A,30.24,-9999.0,North,-9999.0,-,N/A,,Unknown,0,2013-01-03 13:56:00
8:56 AM,-9999,-9999,N/A,30.26,-9999.0,North,9.2,-,N/A,,Unknown,360,2013-01-03 14:56:00
9:29 AM,42.8,39.2,87,30.26,10.0,North,9.2,-,0.01,Rain,Light Rain,10,2013-01-03 15:29:00
9:56 AM,44.1,41.0,89,30.26,10.0,North,5.8,-,0.01,,Overcast,360,2013-01-03 15:56:00
10:32 AM,44.6,39.2,81,30.26,10.0,North,12.7,20.7,N/A,,Overcast,360,2013-01-03 16:32:00
10:56 AM,44.1,39.9,85,30.26,10.0,NNW,12.7,-,N/A,,Overcast,340,2013-01-03 16:56:00
11:10 AM,44.6,41.0,87,30.25,10.0,North,10.4,-,N/A,,Overcast,350,2013-01-03 17:10:00
11:56 AM,45.0,39.9,82,30.23,10.0,North,11.5,-,N/A,,Overcast,350,2013-01-03 17:56:00
12:30 PM,44.6,39.2,81,30.23,10.0,North,11.5,-,N/A,,Overcast,350,2013-01-03 18:30:00
12:56 PM,45.0,39.9,82,30.22,10.0,North,11.5,-,N/A,,Overcast,360,2013-01-03 18:56:00
1:21 PM,44.6,39.2,81,30.23,10.0,NNW,10.4,-,N/A,,Overcast,330,2013-01-03 19:21:00
1:56 PM,45.0,39.0,80,30.22,10.0,North,11.5,-,N/A,,Overcast,350,2013-01-03 19:56:00
2:56 PM,-9999,-9999,N/A,30.23,-9999.0,North,-9999.0,-,N/A,,Unknown,0,2013-01-03 20:56:00
3:56 PM,-9999,-9999,N/A,30.26,-9999.0,North,-9999.0,-,N/A,,Unknown,0,2013-01-03 21:56:00
4:56 PM,-9999,-9999,N/A,30.26,-9999.0,North,-9999.0,-,N/A,,Unknown,0,2013-01-03 22:56:00
5:56 PM,-9999,-9999,N/A,30.29,-9999.0,North,-9999.0,-,N/A,,Unknown,0,2013-01-03 23:56:00
6:56 PM,-9999,-9999,N/A,30.30,-9999.0,North,-9999.0,-,N/A,,Unknown,0,2013-01-04 00:56:00
7:56 PM,-9999,-9999,N/A,30.32,-9999.0,North,-9999.0,-,N/A,,Unknown,0,2013-01-04 01:56:00
8:56 PM,-9999,-9999,N/A,30.34,-9999.0,North,-9999.0,-,N/A,,Unknown,0,2013-01-04 02:56:00
9:56 PM,-9999,-9999,N/A,30.34,-9999.0,North,-9999.0,-,N/A,,Unknown,0,2013-01-04 03:56:00
10:56 PM,-9999,-9999,N/A,30.33,-9999.0,North,-9999.0,-,N/A,,Unknown,0,2013-01-04 04:56:00
11:56 PM,-9999,-9999,N/A,30.33,-9999.0,North,-9999.0,-,N/A,,Unknown,0,2013-01-04 05:56:00